Simultaneous Nadir Overpasses (SNOs) Predictions

Prediction of SNOs between METOP-B and TERRA Satellite Orbit:

Table of predicted SNOs for the next 14.0 days since TLE Epoch: 11/4/2022
Index Date (METOP-B) Time (METOP-B) Lat,Lon (METOP-B) SZA (METOP-B ) Date (TERRA) Time (TERRA) Lat,Lon (TERRA) SZA (TERRA ) Distance(km) Time Diff (sec)
1 11/06/2022 06:05:48 81.01, 125.51 99.09 11/06/2022 06:06:51 81.01, 125.49 99.11 0.40 63
2 11/06/2022 06:56:28 -81.03, -66.72 80.85 11/06/2022 06:56:14 -81.02, -66.63 80.85 1.52 14
3 11/08/2022 22:17:28 81.00,-117.63 99.84 11/08/2022 22:18:36 81.01,-117.46 99.89 3.14 68
4 11/08/2022 23:08:07 -81.03, 50.52 80.05 11/08/2022 23:07:59 -81.03, 50.46 80.06 1.22 8
5 11/11/2022 14:29:09 80.95, -1.57 100.44 11/11/2022 14:30:23 80.91, -1.65 100.43 4.77 74
6 11/11/2022 15:19:45 -81.04, 167.69 79.30 11/11/2022 15:19:42 -81.04, 167.70 79.30 0.67 3
7 11/14/2022 07:31:25 -81.02, -75.58 78.65 11/14/2022 07:31:27 -81.01, -75.62 78.65 1.02 2
8 11/16/2022 23:43:04 -81.02, 41.44 77.99 11/16/2022 23:43:10 -81.02, 41.55 77.98 2.02 6



Historial Predications of SNOs between METOP-B and TERRA
